Location: Владивосток
(43.1151°N, 131.8856°E)
Time: 17:54:51
(UTC+10:00)

DUCHIFAT 1 - Pass Details

Date: 02 July 2022
Orbit: 580 x 596 km, 98.0° (Epoch: 09 August)

Event Time Altitude Azimuth Distance (km) Brightness Sun altitude
Rises 02:53:56 0° 27° (NNE) 2,843 ? -20.1°
Reaches altitude 10° 02:56:32 10° 43° (NE) 1,938 ? -19.9°
Maximum altitude 02:59:47 21° 94° (E) 1,339 ? -19.7°
Enters shadow 03:02:12 14° 136° (SE) 1,694 ? -19.5°
